KD5UIG Weather Reports


Display with metric or nautical units.
time (UTC)temp
F
wind
direction
speed
MPH
gust
MPH
rain 1hr
in
rain 24hr
in
rain mn
in
humidity
%
barometer
mb
20260903023104 91 82 1.0 6.0 0.00 0.00 0.00 53 1013.0
20260903022557 91 123 1.0 6.0 0.00 0.00 0.00 53 1012.9
20260903022054 91 94 1.0 6.0 0.00 0.00 0.00 53 1012.8
20260903021603 91 105 1.0 6.0 0.00 0.00 0.00 53 1012.7
20260903021055 91 87 1.0 7.0 0.00 0.00 0.00 52 1012.7
20260903020554 92 0 1.0 9.0 0.00 0.00 0.00 52 1012.5
20260903020106 92 61 2.0 9.0 0.00 0.00 0.00 52 1012.4
20260903015555 92 0 2.0 9.0 0.00 0.00 0.00 52 1012.4
20260903015054 92 116 1.0 8.0 0.00 0.00 0.00 52 1012.2
20260903014604 92 70 3.0 8.0 0.00 0.00 0.00 51 1012.2
20260903014054 92 152 1.0 8.0 0.00 0.00 0.00 51 1012.2
20260903013554 92 144 2.0 5.0 0.00 0.00 0.00 50 1012.2
20260903013109 93 104 1.0 8.0 0.00 0.00 0.00 50 1012.2
20260903012555 93 97 1.0 8.0 0.00 0.00 0.00 50 1012.1
20260903012055 93 0 2.0 7.0 0.00 0.00 0.00 49 1012.1
20260903011605 94 119 1.0 9.0 0.00 0.00 0.00 49 1012.0
20260903011054 94 84 2.0 9.0 0.00 0.00 0.00 48 1012.0
20260903010554 94 77 2.0 8.0 0.00 0.00 0.00 47 1011.9
20260903010108 95 140 2.0 8.0 0.00 0.00 0.00 46 1011.9
20260903005556 95 82 2.0 8.0 0.00 0.00 0.00 44 1011.8
20260903005054 96 73 1.0 7.0 0.00 0.00 0.00 43 1011.7
20260903004607 96 70 2.0 7.0 0.00 0.00 0.00 42 1011.7
20260903004055 97 64 2.0 9.0 0.00 0.00 0.00 42 1011.7
20260903003554 97 66 2.0 9.0 0.00 0.00 0.00 41 1011.7
20260903003103 97 88 3.0 9.0 0.00 0.00 0.00 41 1011.7
20260903002555 98 84 2.0 7.0 0.00 0.00 0.00 40 1011.6
20260903002055 98 59 2.0 6.0 0.00 0.00 0.00 40 1011.7
20260903001603 98 70 1.0 8.0 0.00 0.00 0.00 40 1011.6
20260903001055 98 75 3.0 8.0 0.00 0.00 0.00 39 1011.6
20260903000556 99 136 1.0 8.0 0.00 0.00 0.00 39 1011.5
20260902235555 99 51 3.0 8.0 0.00 0.00 0.00 39 1011.5
20260902235055 99 75 2.0 9.0 0.00 0.00 0.00 39 1011.5
20260902234618 99 156 2.0 9.0 0.00 0.00 0.00 38 1011.6
20260902234055 100 80 3.0 11.0 0.00 0.00 0.00 38 1011.7
20260902233554 100 73 4.0 11.0 0.00 0.00 0.00 37 1011.7
20260902233105 100 68 1.0 9.0 0.00 0.00 0.00 37 1011.7
20260902232554 100 80 3.0 9.0 0.00 0.00 0.00 37 1011.7
20260902232054 101 107 1.0 10.0 0.00 0.00 0.00 38 1011.7
20260902231624 100 65 1.0 10.0 0.00 0.00 0.00 38 1011.5
20260902231055 101 68 4.0 10.0 0.00 0.00 0.00 38 1011.6
20260902230600 101 66 2.0 9.0 0.00 0.00 0.00 37 1011.6
20260902230108 101 69 2.0 9.0 0.00 0.00 0.00 37 1011.5
20260902225555 101 84 3.0 8.0 0.00 0.00 0.00 37 1011.6
20260902225055 101 0 2.0 8.0 0.00 0.00 0.00 37 1011.6
20260902224613 101 86 1.0 10.0 0.00 0.00 0.00 38 1011.7
20260902224054 101 57 2.0 10.0 0.00 0.00 0.00 38 1011.7
20260902223554 101 73 4.0 10.0 0.00 0.00 0.00 38 1011.9
20260902223104 101 86 2.0 8.0 0.00 0.00 0.00 38 1011.8
20260902222553 101 81 4.0 11.0 0.00 0.00 0.00 38 1011.9
20260902222055 101 71 3.0 11.0 0.00 0.00 0.00 38 1011.9
20260902221605 101 72 6.0 11.0 0.00 0.00 0.00 37 1011.8
20260902221055 102 46 2.0 10.0 0.00 0.00 0.00 37 1011.9
20260902220558 102 67 4.0 10.0 0.00 0.00 0.00 36 1011.9
20260902220113 102 61 2.0 8.0 0.00 0.00 0.00 37 1011.9
20260902215557 102 76 1.0 8.0 0.00 0.00 0.00 37 1012.0
20260902215056 102 72 2.0 8.0 0.00 0.00 0.00 37 1012.1
20260902214603 102 79 2.0 8.0 0.00 0.00 0.00 37 1012.1
20260902214056 102 188 1.0 8.0 0.00 0.00 0.00 38 1012.1
20260902213556 101 67 2.0 6.0 0.00 0.00 0.00 37 1012.2
20260902213123 101 159 2.0 9.0 0.00 0.00 0.00 38 1012.3
20260902212558 101 96 2.0 10.0 0.00 0.00 0.00 38 1012.3
20260902212057 101 51 4.0 10.0 0.00 0.00 0.00 38 1012.4
20260902211606 101 58 3.0 11.0 0.00 0.00 0.00 38 1012.3
20260902211056 101 84 2.0 11.0 0.00 0.00 0.00 38 1012.4
20260902210556 101 81 3.0 11.0 0.00 0.00 0.00 38 1012.5
20260902205556 102 67 4.0 9.0 0.00 0.00 0.00 38 1012.7
20260902205056 102 58 3.0 9.0 0.00 0.00 0.00 39 1012.8
20260902204606 102 76 2.0 8.0 0.00 0.00 0.00 39 1012.8
20260902204056 102 67 3.0 8.0 0.00 0.00 0.00 39 1012.8
20260902203601 102 44 1.0 6.0 0.00 0.00 0.00 38 1012.9
20260902203107 101 153 1.0 6.0 0.00 0.00 0.00 38 1013.0
20260902202558 100 76 2.0 10.0 0.00 0.00 0.00 38 1013.2
20260902202057 101 121 2.0 10.0 0.00 0.00 0.00 38 1013.2
20260902201608 102 61 3.0 9.0 0.00 0.00 0.00 38 1013.3
20260902201058 101 61 1.0 7.0 0.00 0.00 0.00 39 1013.4
20260902200558 101 79 2.0 8.0 0.00 0.00 0.00 40 1013.3
20260902200136 101 55 2.0 8.0 0.00 0.00 0.00 39 1013.4
20260902195557 101 76 2.0 6.0 0.00 0.00 0.00 39 1013.5
20260902195057 101 355 2.0 7.0 0.00 0.00 0.00 40 1013.5
20260902194603 101 55 2.0 7.0 0.00 0.00 0.00 41 1013.6
20260902194101 101 63 0.0 9.0 0.00 0.00 0.00 40 1013.7
20260902193559 101 77 1.0 9.0 0.00 0.00 0.00 41 1013.7
20260902193106 100 80 3.0 9.0 0.00 0.00 0.00 41 1013.9
20260902192556 100 78 1.0 6.0 0.00 0.00 0.00 40 1014.0
20260902192057 100 0 2.0 8.0 0.00 0.00 0.00 42 1014.1
20260902191614 99 71 1.0 9.0 0.00 0.00 0.00 43 1014.1
20260902191056 99 50 4.0 9.0 0.00 0.00 0.00 42 1014.2
20260902190556 99 74 3.0 8.0 0.00 0.00 0.00 42 1014.3
20260902190115 99 61 1.0 10.0 0.00 0.00 0.00 43 1014.3
20260902185600 99 60 3.0 10.0 0.00 0.00 0.00 42 1014.5
20260902185453 100 19 2.0 10.0 0.00 0.00 0.00 41 1014.5
20260902131057 81 0 0.0 3.0 0.00 0.00 0.00 72 1016.3
20260902130557 81 169 0.0 1.0 0.00 0.00 0.00 73 1016.2
20260902125556 80 0 0.0 0.0 0.00 0.00 0.00 74 1016.1
20260902125058 79 0 0.0 0.0 0.00 0.00 0.00 74 1016.1
20260902124606 79 0 0.0 0.0 0.00 0.00 0.00 74 1016.0
20260902124057 79 0 0.0 0.0 0.00 0.00 0.00 74 1016.0
20260902123556 79 0 0.0 0.0 0.00 0.00 0.00 73 1016.0
20260902123118 79 0 0.0 0.0 0.00 0.00 0.00 73 1015.9
20260902122555 79 0 0.0 0.0 0.00 0.00 0.00 73 1015.8
20260902122055 79 0 0.0 0.0 0.00 0.00 0.00 73 1015.7
20260902121606 79 0 0.0 0.0 0.00 0.00 0.00 72 1015.7
20260902121054 79 0 0.0 0.0 0.00 0.00 0.00 72 1015.7
20260902120555 79 0 0.0 0.0 0.00 0.00 0.00 72 1015.7
20260902120104 79 0 0.0 0.0 0.00 0.00 0.00 72 1015.6
20260902115554 79 0 0.0 0.0 0.00 0.00 0.00 72 1015.7
20260902115057 79 0 0.0 1.0 0.00 0.00 0.00 72 1015.7
20260902114606 79 0 0.0 1.0 0.00 0.00 0.00 72 1015.7
20260902114055 79 0 0.0 2.0 0.00 0.00 0.00 72 1015.7
20260902113554 79 0 0.0 2.0 0.00 0.00 0.00 72 1015.7
20260902113114 79 0 0.0 1.0 0.00 0.00 0.00 72 1015.7
20260902112554 79 0 0.0 1.0 0.00 0.00 0.00 71 1015.6
20260902112054 79 0 0.0 1.0 0.00 0.00 0.00 71 1015.7
20260902111603 79 0 0.0 2.0 0.00 0.00 0.00 71 1015.6
20260902111054 79 0 0.0 2.0 0.00 0.00 0.00 71 1015.7
20260902110558 80 0 0.0 2.0 0.00 0.00 0.00 71 1015.7
20260902110105 80 0 0.0 1.0 0.00 0.00 0.00 70 1015.6
20260902105557 80 180 0.0 0.0 0.00 0.00 0.00 70 1015.5
20260902105056 80 0 0.0 2.0 0.00 0.00 0.00 70 1015.5
20260902104602 80 0 0.0 2.0 0.00 0.00 0.00 70 1015.5
20260902104054 80 0 0.0 1.0 0.00 0.00 0.00 70 1015.5
20260902103554 80 0 0.0 1.0 0.00 0.00 0.00 70 1015.4
20260902103104 80 0 0.0 3.0 0.00 0.00 0.00 70 1015.4
20260902102556 80 0 0.0 3.0 0.00 0.00 0.00 70 1015.5
20260902102055 80 0 0.0 3.0 0.00 0.00 0.00 70 1015.6
20260902101620 80 183 0.0 1.0 0.00 0.00 0.00 69 1015.5
20260902101054 80 0 0.0 1.0 0.00 0.00 0.00 69 1015.5
20260902100555 81 0 0.0 1.0 0.00 0.00 0.00 69 1015.6
20260902095558 81 183 0.0 1.0 0.00 0.00 0.00 69 1015.5
20260902095054 81 0 0.0 1.0 0.00 0.00 0.00 69 1015.5
20260902094605 81 0 0.0 1.0 0.00 0.00 0.00 69 1015.5
20260902094054 81 0 0.0 1.0 0.00 0.00 0.00 69 1015.6
20260902093554 81 0 0.0 1.0 0.00 0.00 0.00 68 1015.5
20260902093101 81 0 0.0 1.0 0.00 0.00 0.00 68 1015.5
20260902092555 81 0 0.0 1.0 0.00 0.00 0.00 68 1015.6
20260902092055 82 0 0.0 1.0 0.00 0.00 0.00 68 1015.7
20260902091605 82 0 0.0 1.0 0.00 0.00 0.00 67 1015.7
20260902091055 82 0 0.0 1.0 0.00 0.00 0.00 67 1015.7
20260902090558 82 0 0.0 1.0 0.00 0.00 0.00 67 1015.7
20260902090128 82 0 0.0 1.0 0.00 0.00 0.00 67 1015.7
20260902085559 82 0 0.0 2.0 0.00 0.00 0.00 67 1015.6
20260902085055 82 0 0.0 2.0 0.00 0.00 0.00 67 1015.6
20260902084604 82 0 0.0 2.0 0.00 0.00 0.00 67 1015.6
20260902084056 82 0 0.0 2.0 0.00 0.00 0.00 67 1015.6
20260902083555 82 0 0.0 2.0 0.00 0.00 0.00 66 1015.6
20260902083110 82 0 0.0 2.0 0.00 0.00 0.00 66 1015.6
20260902082555 83 0 0.0 2.0 0.00 0.00 0.00 66 1015.7
20260902082056 83 198 0.0 2.0 0.00 0.00 0.00 66 1015.6
20260902081608 83 198 0.0 2.0 0.00 0.00 0.00 65 1015.7
20260902081055 83 0 0.0 3.0 0.00 0.00 0.00 65 1015.6
20260902080555 83 0 0.0 5.0 0.00 0.00 0.00 65 1015.6
20260902080110 83 0 0.0 5.0 0.00 0.00 0.00 65 1015.5
20260902075554 83 196 0.0 4.0 0.00 0.00 0.00 64 1015.6
20260902075054 84 198 0.0 3.0 0.00 0.00 0.00 64 1015.7
20260902074601 84 201 0.0 3.0 0.00 0.00 0.00 64 1015.8
20260902074059 84 201 0.0 3.0 0.00 0.00 0.00 64 1015.6
20260902073555 84 0 0.0 3.0 0.00 0.00 0.00 64 1015.6
20260902073101 84 0 0.0 3.0 0.00 0.00 0.00 63 1015.6
20260902072555 84 0 0.0 3.0 0.00 0.00 0.00 63 1015.6
20260902072055 85 0 0.0 4.0 0.00 0.00 0.00 63 1015.6
20260902071605 85 199 0.0 4.0 0.00 0.00 0.00 63 1015.6
20260902071055 85 204 0.0 4.0 0.00 0.00 0.00 63 1015.7
20260902070555 85 163 0.0 3.0 0.00 0.00 0.00 63 1015.6
20260902070105 85 202 0.0 3.0 0.00 0.00 0.00 62 1015.6
20260902065554 85 0 0.0 5.0 0.00 0.00 0.00 62 1015.6
20260902065058 85 117 1.0 5.0 0.00 0.00 0.00 62 1015.6
20260902064607 85 201 1.0 5.0 0.00 0.00 0.00 62 1015.6
20260902064055 85 200 0.0 6.0 0.00 0.00 0.00 62 1015.6
20260902063555 85 192 1.0 6.0 0.00 0.00 0.00 62 1015.5
20260902063102 85 164 1.0 5.0 0.00 0.00 0.00 61 1015.5
20260902062558 85 201 0.0 2.0 0.00 0.00 0.00 60 1015.5
20260902062056 86 0 0.0 4.0 0.00 0.00 0.00 60 1015.4
20260902061623 86 0 0.0 4.0 0.00 0.00 0.00 59 1015.3
20260902061056 86 201 1.0 4.0 0.00 0.00 0.00 59 1015.3
20260902060556 86 0 1.0 3.0 0.00 0.00 0.00 59 1015.3
20260902060109 87 0 0.0 3.0 0.00 0.00 0.00 58 1015.2
20260902055558 87 0 1.0 3.0 0.00 0.00 0.00 58 1015.2
20260902055058 87 123 0.0 3.0 0.00 0.00 0.00 58 1015.1
20260902054605 87 175 0.0 4.0 0.00 0.00 0.00 58 1015.0
20260902054056 87 160 0.0 5.0 0.00 0.00 0.00 57 1015.0
20260902053600 87 219 0.0 5.0 0.00 0.00 0.00 57 1015.0
20260902053105 87 157 1.0 5.0 0.00 0.00 0.00 57 1015.0
20260902052556 87 164 1.0 5.0 0.00 0.00 0.00 56 1014.9
20260902052056 87 97 0.0 4.0 0.00 0.00 0.00 56 1014.9
20260902051600 87 0 0.0 1.0 0.00 0.00 0.00 56 1014.9
20260902051056 88 0 0.0 2.0 0.00 0.00 0.00 56 1014.8
20260902050559 88 0 0.0 2.0 0.00 0.00 0.00 55 1014.7
20260902050107 88 0 0.0 2.0 0.00 0.00 0.00 55 1014.6
20260902045601 88 0 0.0 0.0 0.00 0.00 0.00 55 1014.6
20260902045057 88 0 0.0 1.0 0.00 0.00 0.00 55 1014.7
20260902044610 88 0 0.0 1.0 0.00 0.00 0.00 54 1014.7
20260902044057 88 0 0.0 1.0 0.00 0.00 0.00 54 1014.7
20260902043555 88 0 0.0 1.0 0.00 0.00 0.00 54 1014.7
20260902043106 88 154 0.0 1.0 0.00 0.00 0.00 53 1014.6
20260902042556 89 0 0.0 1.0 0.00 0.00 0.00 53 1014.6
20260902042057 89 0 0.0 1.0 0.00 0.00 0.00 53 1014.5
20260902041608 89 0 0.0 2.0 0.00 0.00 0.00 53 1014.6
20260902041057 89 0 0.0 2.0 0.00 0.00 0.00 53 1014.5
20260902040557 89 0 0.0 2.0 0.00 0.00 0.00 53 1014.6
20260902040107 89 0 0.0 2.0 0.00 0.00 0.00 53 1014.8
20260902035557 89 0 0.0 1.0 0.00 0.00 0.00 53 1014.9
20260902035059 89 0 0.0 1.0 0.00 0.00 0.00 52 1014.8
20260902034602 89 0 0.0 1.0 0.00 0.00 0.00 52 1014.8
20260902034056 89 155 0.0 1.0 0.00 0.00 0.00 52 1014.7
20260902033556 89 0 0.0 1.0 0.00 0.00 0.00 52 1014.6
20260902033113 89 0 0.0 1.0 0.00 0.00 0.00 51 1014.6
20260902032557 90 0 0.0 1.0 0.00 0.00 0.00 51 1014.6
20260902032055 90 0 0.0 1.0 0.00 0.00 0.00 51 1014.5
20260902031605 90 155 0.0 0.0 0.00 0.00 0.00 50 1014.5
20260902031054 90 0 0.0 0.0 0.00 0.00 0.00 50 1014.6
20260902030557 90 0 0.0 0.0 0.00 0.00 0.00 50 1014.5
20260902030118 90 0 0.0 0.0 0.00 0.00 0.00 50 1014.6
20260902025555 91 0 0.0 0.0 0.00 0.00 0.00 49 1014.4
20260902025055 91 0 0.0 1.0 0.00 0.00 0.00 49 1014.3
20260902024602 91 0 0.0 2.0 0.00 0.00 0.00 49 1014.2
20260902024054 91 0 0.0 2.0 0.00 0.00 0.00 49 1014.2
20260902023554 91 0 0.0 3.0 0.00 0.00 0.00 48 1014.1